Tracking 32579 objects as of 15-Dec-2025
HD Live streaming from Space Station
objects crossing your sky now

STARLINK-11199

Track STARLINK-11199 now!
10-day predictions
STARLINK-11199 is classified as:


NORAD ID: 60404
Int'l Code: 2024-141G
Perigee: 366.4 km
Apogee: 367.3 km
Inclination: 53.2 °
Period: 91.7 minutes
Semi major axis: 6737 km
RCS: Unknown
Launch date: August 10, 2024
Source: United States (US)
Launch site: AIR FORCE EASTERN TEST RANGE (AFETR)
Your satellite tracking list
Your tracking list is empty




NASA's NSSDC Master Catalog

Two Line Element Set (TLE):
1 60404U 24141G   25348.84906103 -.00001699  00000-0 -91690-5 0  9996
2 60404  53.1601 144.7946 0000706  94.9295 265.1803 15.69722690 78410
Source of the keplerian elements: AFSPC